EW1898 Weather Reports


time (UTC)temp
C
wind
direction
speed
KPH
gust
KPH
rain 1hr
cm
rain 24hr
cm
rain mn
cm
humidity
%
barometer
mb
20260902223009 20 91 0.0 4.8 0.00 0.00 0.00 73 1020.6
20260902221505 20 170 0.0 3.2 0.00 0.00 0.00 71 1020.7
20260902220003 20 158 0.0 6.4 0.00 0.00 0.00 69 1020.5
20260902214501 20 77 0.0 8.0 0.00 0.03 0.00 67 1020.3
20260902213001 20 161 0.0 8.0 0.00 0.03 0.00 65 1020.5
20260902211559 20 122 0.0 6.4 0.00 0.03 0.00 66 1020.3
20260902210059 20 125 0.0 6.4 0.00 0.03 0.00 68 1020.0
20260902204607 21 125 0.0 8.0 0.00 0.03 0.00 66 1020.4
20260902203058 21 72 0.0 8.0 0.00 0.03 0.00 65 1020.5
20260902201623 21 146 1.6 8.0 0.00 0.03 0.00 64 1020.8
20260902200056 21 220 0.0 6.4 0.00 0.03 0.00 68 1020.9
20260902194555 21 123 1.6 11.3 0.00 0.10 0.00 69 1020.9
20260902193054 21 229 0.0 3.2 0.00 0.10 0.00 73 1021.0
20260902191554 21 240 0.0 4.8 0.00 0.10 0.00 73 1021.2
20260902190053 21 89 0.0 6.4 0.00 0.10 0.00 71 1021.2
20260902184553 21 99 0.0 6.4 0.00 0.25 0.00 68 1021.2
20260902183051 21 146 0.0 8.0 0.00 0.25 0.00 71 1021.3
20260902181550 21 152 0.0 8.0 0.00 0.25 0.00 72 1021.0
20260902180048 21 139 0.0 6.4 0.00 0.25 0.00 73 1021.1
20260902174552 21 142 1.6 6.4 0.00 0.28 0.00 75 1021.2
20260902173048 21 106 0.0 3.2 0.00 0.28 0.00 75 1021.2
20260902171548 21 26 0.0 3.2 0.00 0.28 0.00 75 1021.3
20260902170046 21 141 0.0 8.0 0.00 0.28 0.00 74 1021.5
20260902164547 20 88 0.0 4.8 0.00 0.28 0.00 78 1021.3
20260902163042 20 110 0.0 1.6 0.00 0.28 0.00 80 1021.7
20260902161541 20 122 0.0 6.4 0.00 0.28 0.00 81 1021.7
20260902160038 20 101 0.0 3.2 0.00 0.28 0.00 85 1022.0
20260902154536 20 140 0.0 4.8 0.00 0.28 0.00 87 1022.1
20260902153035 20 100 0.0 8.0 0.00 0.28 0.00 87 1022.2
20260902151533 20 136 0.0 4.8 0.00 0.28 0.00 89 1022.4
20260902150031 19 141 0.0 1.6 0.00 0.28 0.00 91 1022.5
20260902144532 19 134 0.0 4.8 0.00 0.28 0.00 92 1022.5
20260902143026 18 137 0.0 3.2 0.00 0.28 0.00 94 1022.2
20260902141531 18 166 0.0 6.4 0.00 0.28 0.00 94 1022.2
20260902140019 17 134 0.0 4.8 0.00 0.28 0.00 97 1021.7
20260902134518 17 121 0.0 1.6 0.00 0.33 0.00 98 1021.6
20260902133021 17 108 0.0 6.4 0.00 0.33 0.00 98 1021.6
20260902131512 17 167 0.0 6.4 0.00 0.33 0.00 99 1021.5
20260902130022 16 154 0.0 3.2 0.00 0.33 0.00 99 1021.9
20260902124511 16 162 0.0 1.6 0.00 0.69 0.00 99 1021.8
20260902123008 16 137 0.0 1.6 0.00 0.69 0.00 99 1021.9
20260902121506 16 161 0.0 0.0 0.00 0.69 0.00 99 1022.0
20260902120005 16 162 0.0 0.0 0.00 0.69 0.00 99 1022.1
20260902114507 16 162 0.0 0.0 0.00 0.69 0.00 99 1022.1
20260902113003 16 162 0.0 0.0 0.00 0.69 0.00 99 1022.2
20260902111501 16 162 0.0 0.0 0.00 0.69 0.00 99 1021.9
20260902110101 16 162 0.0 0.0 0.00 0.69 0.00 99 1021.8
20260902104610 16 162 0.0 0.0 0.00 0.69 0.00 99 1021.5
20260902103103 16 162 0.0 0.0 0.00 0.69 0.00 99 1021.3
20260902101555 15 162 0.0 0.0 0.00 0.69 0.00 99 1021.3
20260902100054 15 161 0.0 0.0 0.00 0.69 0.00 99 1021.2
20260902094551 16 161 0.0 0.0 0.00 0.69 0.00 99 1021.0
20260902093049 16 160 0.0 0.0 0.00 0.69 0.00 99 1020.9
20260902091555 16 161 0.0 0.0 0.00 0.69 0.00 99 1020.7
20260902090048 16 156 0.0 0.0 0.00 0.69 0.00 99 1020.6
20260902084547 16 156 0.0 0.0 0.00 0.69 0.00 99 1020.5
20260902083109 16 156 0.0 3.2 0.00 0.69 0.00 99 1020.3
20260902081546 16 159 0.0 0.0 0.00 0.69 0.00 99 1020.6
20260902080045 16 208 0.0 0.0 0.00 0.69 0.00 99 1020.7
20260902074544 16 157 0.0 0.0 0.00 0.69 0.00 99 1020.8
20260902073043 16 158 0.0 0.0 0.00 0.69 0.00 99 1020.8
20260902071542 16 157 0.0 0.0 0.00 0.69 0.00 99 1020.8
20260902070043 16 159 0.0 0.0 0.00 0.69 0.00 99 1020.5
20260902064544 16 160 0.0 0.0 0.00 0.69 0.00 99 1020.4
20260902063042 16 160 0.0 0.0 0.00 0.69 0.00 99 1020.4
20260902061547 16 160 0.0 0.0 0.00 0.69 0.00 99 1020.7
20260902060037 16 160 0.0 0.0 0.00 0.69 0.00 99 1020.7
20260902054539 16 160 0.0 0.0 0.00 0.69 0.00 99 1020.5
20260902053036 16 160 0.0 0.0 0.00 0.69 0.00 99 1020.5
20260902051535 16 160 0.0 0.0 0.00 0.69 0.00 99 1020.2
20260902050032 16 160 0.0 0.0 0.00 0.69 0.00 99 1020.1
20260902044531 16 160 0.0 0.0 0.00 0.69 0.00 99 1020.0
20260902043039 16 160 0.0 0.0 0.00 0.69 0.00 99 1019.7
20260902041526 15 160 0.0 0.0 0.00 0.69 0.00 99 1019.7
20260902040024 15 160 0.0 0.0 0.00 0.69 0.00 99 1019.3
20260902034522 16 160 0.0 0.0 0.00 0.69 0.69 99 1019.1
20260902033021 16 160 0.0 0.0 0.00 0.69 0.69 99 1018.9
20260902031533 16 160 0.0 0.0 0.00 0.69 0.69 99 1019.0
20260902030019 16 160 0.0 0.0 0.00 0.69 0.69 99 1019.0
20260902024518 16 160 0.0 0.0 0.00 0.69 0.69 99 1019.0
20260902023029 16 160 0.0 0.0 0.00 0.69 0.69 99 1019.4
20260902021516 16 160 0.0 0.0 0.00 0.69 0.69 99 1019.3
20260902020023 16 158 0.0 0.0 0.00 0.69 0.69 99 1019.3
20260902014520 16 158 0.0 0.0 0.00 0.69 0.69 98 1019.3
20260902013014 16 158 0.0 0.0 0.00 0.69 0.69 99 1019.1
20260902011515 16 158 0.0 0.0 0.00 0.69 0.69 98 1019.1
20260902010013 16 158 0.0 0.0 0.00 0.69 0.69 98 1019.2
20260902004508 16 158 0.0 0.0 0.00 0.69 0.69 98 1018.8
20260902003009 16 158 0.0 0.0 0.00 0.69 0.69 98 1018.8
20260902001507 16 158 0.0 0.0 0.00 0.69 0.69 98 1018.6
20260902000007 16 158 0.0 0.0 0.00 0.69 0.69 98 1018.5
20260901234505 16 158 0.0 0.0 0.00 0.69 0.69 98 1018.5
20260901233010 16 158 0.0 0.0 0.00 0.69 0.69 98 1018.6
20260901231509 16 158 0.0 0.0 0.00 0.69 0.69 98 1018.6
20260901230004 16 158 0.0 0.0 0.00 0.69 0.69 98 1018.3
20260901224502 16 158 0.0 0.0 0.00 0.69 0.69 98 1018.4